This demonstration page uses our WeatherBlox Daily Observations layout. Learn more.

Left ArrowRight Arrow

39.51506, -84.39828

Hourly Observations for April 8, 2018

Temp ( °F °C ) Dew Point ( °F °C ) Humidity (%) Winds ( mph kmh ) Pressure ( in mb ) Visibility ( mi km ) Precip ( " mm )
12:15 am 00:15 Clear 31 -0.5 20 -6.8 63 63 NNW 5 7 30.09 1019 10 16 0.00 0.00
12:35 am 00:35 Clear 31 -0.6 20 -6.6 64 64 NNW 5 7 30.09 1019 10 16 0.00 0.00
12:55 am 00:55 Clear 31 -0.8 20 -6.7 65 65 NW 6 9 30.09 1019 10 16 0.00 0.00
1:15 am 01:15 Clear 31 -0.8 20 -6.7 65 65 NW 6 9 30.09 1019 10 16 0.00 0.00
1:35 am 01:35 Clear 30 -0.9 20 -6.7 65 65 NNW 7 11 30.09 1019 10 16 0.00 0.00
1:55 am 01:55 Clear 30 -1.3 20 -6.5 68 68 N 7 11 30.09 1019 10 16 0.00 0.00
2:15 am 02:15 Clear 29 -1.7 20 -6.6 70 70 N 6 9 30.09 1019 10 16 0.00 0.00
2:35 am 02:35 Clear 28 -2 20 -6.9 69 69 NNW 7 11 30.09 1019 10 16 0.00 0.00
2:55 am 02:55 Clear 28 -2.1 19 -7.1 69 69 N 6 9 30.09 1019 10 16 0.00 0.00
3:15 am 03:15 Clear 28 -2.5 19 -7.5 69 69 N 5 7 30.09 1019 10 16 0.00 0.00
3:35 am 03:35 Clear 27 -2.6 18 -7.7 68 68 N 5 7 30.09 1019 10 16 0.00 0.00
3:55 am 03:55 Clear 27 -2.8 18 -7.8 69 69 N 5 7 30.09 1019 10 16 0.00 0.00
4:15 am 04:15 Clear 27 -2.8 18 -7.8 69 69 N 5 7 30.09 1019 10 16 0.00 0.00
4:35 am 04:35 Clear 27 -2.9 18 -7.9 69 69 N 5 7 30.09 1019 10 16 0.00 0.00
4:55 am 04:55 Clear 26 -3.3 18 -7.9 71 71 N 5 7 30.09 1019 10 16 0.00 0.00
5:15 am 05:15 Clear 26 -3.3 18 -7.7 72 72 N 3 6 30.09 1019 10 16 0.00 0.00
5:35 am 05:35 Clear 25 -3.8 18 -7.9 73 73 N 5 7 30.09 1019 10 16 0.00 0.00
5:55 am 05:55 Clear 25 -3.9 18 -7.6 76 76 N 3 6 30.09 1019 10 16 0.00 0.00
6:15 am 06:15 Clear 25 -4 18 -7.6 76 76 NNW 3 6 30.12 1020 10 16 0.00 0.00
6:35 am 06:35 Clear 25 -4.1 19 -7.5 77 77 Calm 30.12 1020 10 16 0.00 0.00
6:55 am 06:55 Clear 23 -4.8 19 -7 85 85 Calm 30.12 1020 10 16 0.00 0.00
7:15 am 07:15 Sunny 23 -4.9 20 -6.6 88 88 Calm 30.12 1020 10 16 0.00 0.00
7:35 am 07:35 Sunny 23 -5.1 20 -6.6 89 89 Calm 30.12 1020 10 16 0.00 0.00
7:55 am 07:55 Sunny 23 -5.1 20 -6.8 88 88 Calm 30.15 1021 10 16 0.00 0.00
8:15 am 08:15 Sunny 25 -3.7 19 -7.3 76 76 N 5 7 30.15 1021 10 16 0.00 0.00
8:35 am 08:35 Sunny 27 -2.7 17 -8.3 66 66 N 8 13 30.15 1021 10 16 0.00 0.00
8:55 am 08:55 Sunny 28 -2.3 16 -8.9 61 61 NNE 9 15 30.15 1021 10 16 0.00 0.00
9:15 am 09:15 Sunny 29 -1.8 15 -9.4 57 57 N 8 13 30.15 1021 10 16 0.00 0.00
9:35 am 09:35 Sunny 29 -1.6 13 -10.4 52 52 N 8 13 30.15 1021 10 16 0.00 0.00
9:55 am 09:55 Sunny 30 -1 13 -10.5 49 49 NNE 5 7 30.15 1021 10 16 0.00 0.00
10:15 am 10:15 Sunny 31 -0.4 12 -11.1 45 45 N 6 9 30.15 1021 10 16 0.00 0.00
10:35 am 10:35 Sunny 32 0.1 11 -11.4 42 42 N 10 17 30.18 1022 10 16 0.00 0.00
10:55 am 10:55 Sunny 33 0.7 12 -11.3 41 41 N 7 11 30.15 1021 10 16 0.00 0.00
11:15 am 11:15 Sunny 35 1.5 13 -10.5 41 41 NNE 7 11 30.18 1022 10 16 0.00 0.00
11:35 am 11:35 Sunny 35 1.5 12 -11.3 38 38 NNW 7 11 30.18 1022 10 16 0.00 0.00
11:55 am 11:55 Sunny 36 2.1 11 -11.4 36 36 N 8 13 30.18 1022 10 16 0.00 0.00
12:15 pm 12:15 Sunny 35 1.9 12 -11 38 38 NE 5 7 30.15 1021 10 16 0.00 0.00
12:35 pm 12:35 Sunny 37 2.7 12 -10.9 36 36 NE 6 9 30.15 1021 10 16 0.00 0.00
12:55 pm 12:55 Sunny 38 3.3 14 -9.8 38 38 NE 12 19 30.15 1021 10 16 0.00 0.00
1:15 pm 13:15 Sunny 38 3.1 12 -11.2 34 34 NE 9 15 30.15 1021 10 16 0.00 0.00
1:35 pm 13:35 Sunny 39 3.7 13 -10.4 35 35 SE 6 9 30.12 1020 10 16 0.00 0.00
1:55 pm 13:55 Sunny 39 4.1 11 -11.4 32 32 NNE 5 7 30.12 1020 10 16 0.00 0.00
2:15 pm 14:15 Sunny 41 4.9 16 -9.1 36 36 NE 10 17 30.09 1019 10 16 0.00 0.00
2:35 pm 14:35 Sunny 40 4.4 13 -10.8 32 32 NNE 3 6 30.09 1019 10 16 0.00 0.00
2:55 pm 14:55 Sunny 41 4.9 13 -10.4 32 32 NNW 5 7 30.06 1018 10 16 0.00 0.00
3:15 pm 15:15 Sunny 41 5.2 13 -10.5 31 31 ENE 7 11 30.06 1018 10 16 0.00 0.00
3:35 pm 15:35 Sunny 41 5.2 13 -10.6 31 31 E 5 7 30.06 1018 10 16 0.00 0.00
3:55 pm 15:55 Sunny 40 4.7 11 -11.5 30 30 E 3 6 30.06 1018 10 16 0.00 0.00
4:15 pm 16:15 Sunny 41 5 13 -10.8 31 31 SSE 3 6 30.06 1018 10 16 0.00 0.00
4:35 pm 16:35 Sunny 41 5.1 13 -10.5 32 32 ESE 3 6 30.06 1018 10 16 0.00 0.00
4:55 pm 16:55 Sunny 41 5.1 12 -11.2 30 30 Calm 30.06 1018 10 16 0.00 0.00
5:15 pm 17:15 Sunny 42 5.4 13 -10.7 31 31 E 6 9 30.06 1018 10 16 0.00 0.00
5:35 pm 17:35 Sunny 41 5.1 11 -11.4 30 30 NE 3 6 30.06 1018 10 16 0.00 0.00
5:55 pm 17:55 Sunny 41 5 12 -11 31 31 Calm 30.06 1018 10 16 0.00 0.00
6:15 pm 18:15 Sunny 41 5 11 -11.9 29 29 N 3 6 30.06 1018 10 16 0.00 0.00
6:35 pm 18:35 Sunny 41 5 12 -11 31 31 Calm 30.06 1018 10 16 0.00 0.00
6:55 pm 18:55 Sunny 41 5 11 -11.4 30 30 NNE 3 6 30.06 1018 10 16 0.00 0.00
7:15 pm 19:15 Partly Cloudy 41 4.9 11 -11.9 29 29 Calm 30.06 1018 10 16 0.00 0.00
7:35 pm 19:35 Mostly Cloudy 40 4.7 15 -9.6 35 35 NW 3 6 30.06 1018 10 16 0.00 0.00
7:55 pm 19:55 Cloudy 40 4.6 15 -9.6 35 35 NE 5 7 30.06 1018 10 16 0.00 0.00
8:15 pm 20:15 Cloudy 40 4.4 15 -9.7 35 35 NNE 6 9 30.06 1018 10 16 0.00 0.00
8:35 pm 20:35 Cloudy 40 4.2 15 -9.3 37 37 NNE 6 9 30.06 1018 10 16 0.00 0.00
8:55 pm 20:55 Cloudy 39 4.1 16 -9.1 38 38 NNE 5 7 30.03 1017 10 16 0.00 0.00
9:15 pm 21:15 Cloudy 40 4.2 14 -9.9 35 35 NNE 7 11 30.06 1018 10 16 0.00 0.00
9:35 pm 21:35 Cloudy 39 4.1 17 -8.5 40 40 NE 6 9 30.06 1018 10 16 0.00 0.00
9:55 pm 21:55 Cloudy 39 4 17 -8.4 40 40 NE 6 9 30.09 1019 10 16 0.00 0.00
10:15 pm 22:15 Cloudy 39 3.9 16 -8.9 39 39 ENE 7 11 30.09 1019 10 16 0.00 0.00
10:35 pm 22:35 Cloudy 39 4.1 15 -9.3 37 37 ENE 7 11 30.06 1018 10 16 0.00 0.00
10:55 pm 22:55 Cloudy 39 3.9 16 -8.8 39 39 ENE 8 13 30.09 1019 10 16 0.00 0.00
11:15 pm 23:15 Cloudy 39 3.9 17 -8.4 41 41 ENE 7 11 30.03 1017 10 16 0.00 0.00
11:35 pm 23:35 Cloudy 39 3.8 18 -7.9 43 43 ENE 7 11 30.03 1017 10 16 0.00 0.00
11:55 pm 23:55 Cloudy 39 3.7 18 -7.7 43 43 ENE 6 9 30.06 1018 10 16 0.00 0.00

Powered by AerisWeather